国际通讯卫星 603星 (INTELSAT 603 (IS-603))

导读 | 豆包AI

INTELSAT 603是国际通信卫星组织(ITSO)发射的一颗商用通信卫星,于1990年3月14日发射入轨。它隶属于国际通信卫星系列,运行于地球静止轨道,主要承担跨洋洲际通信、广播电视转播等服务,为全球通信网络提供中继支撑。作为冷战末期商用通信卫星代表,它延续了INTELSAT系列全球覆盖的定位,服务国际电信传输需求,服役期间为大西洋区域通信连接提供了稳定支持,是国际卫星通信商业化发展进程中的重要节点。

Basic Information
目录编号:
20523
目录名称:
INTELSAT 603
国际标识:
1990-021A
轨道中心:
EARTH
卫星名称:
国际通讯卫星 603星
卫星全名:
国际通讯卫星 603星 (INTELSAT 603 (IS-603))
卫星状态:
在轨 (已飞行13197 天)
发射日期:
1990-03-14 UTC
国别 :
(ITSO)
星等 :
--
Orbit Information
数据来源 国际轨道数据 AOE轨道数据
星历时间 2026-05-01T02:43:18+0800
9小时前
查看轨道信息
2026-05-01T03:00:00+0800
9小时前
查看轨道信息
半长轴 42388.454km 42388.368km
偏心率 0.0005171 0.0005281
轨道倾角 13.987° 13.986°
近地点辐角 51.759° 53.752°
升交点赤经 9.676° 9.675°
平近点角 118.020° 120.182°
近地点 35988.397km 35987.845km
远地点 36032.237km 36032.617km
周期 1447.542分钟 1447.537分钟
每日圈数 0.99479 0.994793
Detailed Information
卫星平台:
Intelsat VA
平衡模式:
三轴稳定
覆盖范围:
全球
运营商:
国际卫星通信公司
运营商所在国:
美国
制造商(研发单位):
休斯公司
制造商所在国:
美国
使用方式:
暂无
Satellite Introduction
从1965年4月至1984年3月,国际通信卫星组织发射了5代、6种不同性能的卫星共计35颗,除6颗卫星因运载火箭和远地点发动机故障而发射失败外,其余29颗卫星均被送到了预定的静止轨道位置。1984年8月前后,国际通信卫星组织利用部署在大西洋、太平洋、印度洋上空的15颗国际通信卫星,为遍布世界各地170多个国家或地区提供电话、电传、电报、电视和数据传输等电信业务;该卫星已退役。
2D Orbit Map
3D Orbit Map
Orbit Altitude Analysis Chart
Orbit Inclination Analysis Chart
Orbit Comprehensive Analysis Chart
View Comprehensive Chart